Weather History for Gillette, WY

Change the Weather History Date:

Monday, May 5, 2014

  Actual Average Record
Temperature  
Mean Temperature 54 °F 50 °F  
Max Temperature 73 °F 62 °F 85 °F (1966)
Min Temperature 34 °F 37 °F 20 °F (1967)
Degree Days  
Heating Degree Days 11 16  
Month to date heating degree days 76 82  
Since 1 July heating degree days 7326 7098  
Cooling Degree Days 0 0  
Month to date cooling degree days 0 0  
Year to date cooling degree days 0 0  
Growing Degree Days 3 (Base 50)    
Moisture  
Dew Point 44 °F    
Average Humidity 64    
Maximum Humidity 93    
Minimum Humidity 35    
Precipitation  
Precipitation 0.26 in 0.06 in 1.85 in (1993)
Month to date precipitation 0.26 0.34  
Year to date precipitation 3.43 3.55  
Sea Level Pressure  
Sea Level Pressure 29.74 in    
Wind  
Wind Speed 7 mph (NNW)    
Max Wind Speed 21 mph    
Max Gust Speed 25 mph    
Visibility 8 miles    
Events Rain , Thunderstorm    
T = Trace of Precipitation, MM = Missing Value Source: NWS Daily Summary

Daily Weather History Graph

Daily Weather History Graph

Search for Another Location

Airport:

Trip Planner

Search our weather history database for the weather conditions in past years. The results will help you decide how hot, cold, wet, or windy it might be!

Date:

Astronomy

May. 05, 2014 Rise Set
Actual Time 5:47 AM MDT 8:11 PM MDT
Civil Twilight 5:14 AM MDT 8:43 PM MDT
Nautical Twilight 4:34 AM MDT 9:24 PM MDT
Astronomical Twilight 3:49 AM MDT 10:09 PM MDT
Moon 11:10 AM MDT (5/5) 12:56 AM MDT (5/5)
Length of Visible Light 15h 28m
Length of Day
14h 23m
Waxing Crescent, 37% of the Moon is Illuminated
May 5
Waxing Crescent
May 6
First Quarter
May 14
Full
May 21
Last Quarter
May 28
New

Hourly Weather History & Observations

Time (MDT) Temp. Dew Point Humidity Pressure Visibility Wind Dir Wind Speed Gust Speed Precip Events Conditions
12:53 AM 39.0 °F 37.0 °F 93% 29.83 in 10.0 mi Calm Calm - N/A   Clear
1:53 AM 37.9 °F 36.0 °F 93% 29.83 in 9.0 mi Calm Calm - N/A   Clear
2:53 AM 35.1 °F 34.0 °F 96% 29.84 in 9.0 mi Calm Calm - N/A   Clear
3:53 AM 35.1 °F 33.1 °F 92% 29.85 in 8.0 mi Calm Calm - N/A   Clear
4:53 AM 36.0 °F 34.0 °F 93% 29.85 in 7.0 mi Calm Calm - N/A   Clear
5:53 AM 36.0 °F 34.0 °F 93% 29.84 in 5.0 mi Calm Calm - N/A   Clear
6:53 AM 41.0 °F 39.0 °F 93% 29.83 in 5.0 mi Calm Calm - N/A   Clear
7:53 AM 48.0 °F 44.1 °F 86% 29.81 in 7.0 mi Calm Calm - N/A   Clear
8:53 AM 51.1 °F 43.0 °F 74% 29.81 in 10.0 mi SE 6.9 mph - N/A   Clear
9:53 AM 54.0 °F 43.0 °F 66% 29.80 in 10.0 mi SSE 12.7 mph - N/A   Clear
10:53 AM 57.9 °F 44.1 °F 60% 29.78 in 10.0 mi SSE 11.5 mph - N/A   Clear
11:53 AM 66.2 °F 46.4 °F 49% 29.79 in 10.0 mi South 6.9 mph - N/A   Clear
12:53 PM 71.1 °F 42.1 °F 35% 29.69 in 10.0 mi SSW 9.2 mph - N/A   Partly Cloudy
1:53 PM 70.0 °F 48.0 °F 46% 29.67 in 10.0 mi NNW 11.5 mph - N/A   Scattered Clouds
2:53 PM 71.1 °F 51.1 °F 49% 29.66 in 10.0 mi North 10.4 mph - N/A   Clear
3:53 PM 71.1 °F 48.0 °F 44% 29.64 in 10.0 mi NNW 13.8 mph - N/A   Partly Cloudy
4:53 PM 64.9 °F 50.0 °F 58% 29.63 in 10.0 mi North 13.8 mph - N/A   Clear
5:53 PM 62.1 °F 50.0 °F 65% 29.64 in 10.0 mi NNW 9.2 mph - N/A   Clear
6:42 PM 57.2 °F 48.2 °F 72% 29.69 in 1.5 mi North 18.4 mph - 0.00 in Thunderstorm Unknown
6:53 PM 55.9 °F 48.9 °F 77% 29.66 in 5.0 mi NNW 15.0 mph 19.6 mph 0.01 in Rain , Thunderstorm Light Thunderstorms and Rain
7:25 PM 53.6 °F 48.2 °F 82% 29.69 in 10.0 mi NNW 10.4 mph - 0.00 in   Scattered Clouds
7:53 PM 53.1 °F 48.9 °F 86% 29.65 in 10.0 mi SE 5.8 mph - 0.00 in   Clear
8:36 PM 53.6 °F 48.2 °F 82% 29.69 in 10.0 mi North 10.4 mph - N/A Thunderstorm Thunderstorm
8:53 PM 53.1 °F 48.0 °F 83% 29.68 in 7.0 mi NW 13.8 mph - 0.00 in Rain , Thunderstorm Light Thunderstorms and Rain
9:01 PM 53.6 °F 48.2 °F 82% 29.76 in 1.8 mi SW 8.1 mph - 0.03 in Rain , Thunderstorm Heavy Thunderstorms and Rain
9:11 PM 51.8 °F 48.2 °F 88% 29.75 in 3.0 mi SSE 9.2 mph - 0.12 in Rain , Thunderstorm Thunderstorms and Rain
9:53 PM 53.6 °F 46.4 °F 77% 29.71 in 6.0 mi NNE 18.4 mph - N/A Rain , Thunderstorm Light Thunderstorms and Rain
10:04 PM 53.6 °F 46.4 °F 77% 29.73 in 10.0 mi North 9.2 mph - 0.00 in   Scattered Clouds
10:53 PM 51.1 °F 46.9 °F 86% 29.67 in 10.0 mi NW 6.9 mph - 0.00 in   Overcast
11:53 PM 48.9 °F 45.0 °F 86% 29.67 in 10.0 mi North 4.6 mph - N/A   Partly Cloudy